Lapse_Rate
7.2 7.0 7.0 6.9 6.9 6.8 6.9 7.0 7.0 6.9 6.9 6.8 6.8 6.8 6.8 6.8 6.8 6.7 6.6 6.5 6.5 6.5 6.4 6.4 6.3 6.4 6.4 6.3 6.2 6.2 6.2 6.2
7.4 7.4 7.2 7.1 7.0 6.9 6.9 6.9 6.9 6.9 6.9 6.9 6.8 6.7 6.7 6.8 6.8 6.8 6.6 6.5 6.5 6.5 6.4 6.4 6.3 6.3 6.3 6.2 6.2 6.2 6.2 6.3
7.5 7.5 7.4 7.2 7.0 7.0 6.9 6.9 6.9 6.9 6.9 6.9 6.8 6.8 6.8 6.8 6.8 6.7 6.6 6.5 6.6 6.5 6.4 6.3 6.3 6.3 6.3 6.4 6.4 6.4 6.3 6.3
7.2 7.5 7.5 7.3 7.1 6.9 6.8 6.9 6.9 7.0 7.0 7.0 6.9 6.9 6.8 6.7 6.7 6.6 6.5 6.5 6.4 6.4 6.3 6.2 6.3 6.3 6.4 6.5 6.6 6.5 6.6 6.5
7.5 7.5 7.5 7.5 7.3 7.1 7.0 6.9 7.0 7.0 7.0 7.0 6.9 6.9 6.9 6.8 6.8 6.7 6.6 6.5 6.4 6.3 6.2 6.2 6.2 6.2 6.2 6.4 6.5 6.5 6.6 6.6
7.5 7.6 7.7 7.6 7.5 7.5 7.2 7.2 7.1 7.0 7.2 7.1 6.9 6.9 6.9 6.9 6.9 6.8 6.6 6.5 6.4 6.3 6.3 6.2 6.3 6.3 6.2 6.2 6.3 6.4 6.5 6.7
6.9 7.3 7.7 7.7 7.6 7.4 7.6 7.5 7.3 7.3 7.1 7.2 7.1 7.0 7.0 6.9 6.8 6.8 6.6 6.6 6.5 6.4 6.2 6.3 6.4 6.5 6.5 6.4 6.5 6.5 6.6 6.6
7.3 7.2 7.7 7.8 7.7 7.6 7.6 7.7 7.5 7.5 7.4 7.4 7.4 7.2 7.1 7.1 7.0 6.8 6.7 6.5 6.5 6.4 6.3 6.4 6.5 6.5 6.7 6.7 6.8 6.8 6.8 6.9
7.3 7.9 7.9 7.8 7.8 7.7 7.6 7.6 7.7 7.6 7.8 7.6 7.5 7.6 7.3 7.2 7.2 7.1 7.0 6.9 6.8 6.6 6.6 6.7 6.7 6.8 6.9 7.0 7.1 7.0 7.0 7.1
7.1 7.5 8.2 8.2 8.1 8.1 7.8 7.6 7.5 7.7 7.6 7.7 7.8 7.8 7.8 7.4 7.3 7.3 7.2 7.1 7.0 6.8 6.8 6.9 7.0 7.1 7.2 7.3 7.2 7.3 7.3 7.4
8.2 7.2 7.9 8.3 8.4 8.1 8.1 7.9 7.8 7.8 7.7 7.7 7.9 8.0 8.0 8.0 7.7 7.6 7.6 7.4 7.2 7.2 7.0 6.9 7.0 7.1 7.2 7.4 7.5 7.5 7.7 7.6
8.0 8.2 8.4 8.3 8.5 8.4 8.2 8.1 8.2 8.3 8.5 8.4 8.3 8.5 8.5 8.6 8.3 8.1 8.0 7.8 7.4 7.1 7.0 7.3 7.3 7.5 7.2 7.3 7.5 7.9 7.8 7.5
8.2 7.9 8.1 8.2 8.1 8.4 8.4 8.4 8.2 8.4 8.5 8.4 8.6 8.5 8.7 8.8 8.7 8.4 8.2 7.8 7.5 7.5 7.0 6.8 6.5 6.4 6.8 7.6 7.9 7.7 7.7 7.3
8.1 8.2 8.0 8.0 8.0 8.0 8.0 8.2 8.4 8.4 8.4 8.6 8.8 8.6 8.5 8.7 8.9 8.9 8.6 8.1 7.5 6.7 6.7 7.2 7.1 6.6 6.6 6.7 7.1 7.5 7.8 7.6
7.5 7.7 7.9 8.0 8.0 7.9 7.9 8.0 8.1 8.4 8.5 8.6 8.6 8.8 8.9 8.7 8.6 8.7 8.7 8.2 7.8 7.4 7.1 7.1 7.4 6.6 5.9 6.6 6.2 7.0 7.4 7.5
7.5 7.5 7.5 7.7 8.0 7.9 8.0 8.1 8.0 8.1 8.3 8.4 8.5 8.4 8.6 8.6 8.5 8.5 8.7 8.3 7.8 7.4 7.2 7.5 7.2 6.8 6.9 6.5 6.6 6.6 7.0 6.8
7.1 7.3 7.5 7.5 7.5 7.5 7.7 7.8 8.2 8.2 8.4 8.4 8.2 7.8 8.4 8.6 8.6 8.6 8.4 8.2 8.2 7.6 7.1 7.1 7.0 6.7 6.7 6.6 6.4 6.2 6.4 7.0
7.5 7.3 7.3 7.3 7.6 7.7 8.0 8.0 8.1 8.2 8.6 8.7 8.3 7.8 8.0 8.7 8.4 8.3 8.0 7.8 7.8 8.1 7.6 7.1 7.0 6.7 6.1 6.3 6.2 6.4 6.0 6.2
7.6 7.5 7.6 7.5 7.4 7.1 7.3 7.6 8.0 8.0 7.8 8.2 8.2 7.5 7.0 7.3 8.1 8.3 8.0 8.1 8.1 8.0 8.0 7.2 6.8 6.6 6.2 5.7 6.3 6.7 6.4 6.5
7.4 7.2 7.2 7.5 7.6 7.4 7.2 7.3 7.6 7.9 7.6 7.2 7.4 7.3 7.1 7.1 7.7 7.6 7.6 7.7 7.5 7.6 7.6 7.2 6.7 6.7 5.8 5.9 5.2 5.9 6.1 7.0
Wind_Speed
15 21 22 17 18 19 21 21 21 19 18 17 16 17 17 15 14 14 14 14 15 14 14 14 13 13 13 12 11 11 13 15
15 19 23 23 23 19 19 20 20 21 21 19 18 17 16 15 16 16 15 14 13 13 14 14 14 14 14 14 13 13 15 17
17 18 19 23 24 23 18 17 17 18 18 19 20 18 19 19 19 18 20 16 16 15 15 16 15 16 16 16 14 15 17 17
18 18 19 18 20 21 23 22 22 22 22 21 21 20 19 20 22 26 21 21 18 17 17 17 15 17 18 23 17 18 18 17
19 17 15 18 16 14 14 17 17 19 22 22 21 19 18 18 15 19 19 19 18 19 18 18 18 17 17 15 19 18 18 17
20 20 16 15 12 12 12 11 12 10 19 22 16 8 9 9 8 15 16 18 17 18 15 17 18 19 18 14 11 13 14 15
18 19 17 15 15 12 12 12 12 14 15 22 20 12 11 11 10 11 12 16 13 10 10 11 12 13 15 13 11 13 15 16
13 16 15 18 15 17 12 12 13 12 11 15 25 15 11 12 10 11 10 13 14 10 11 11 11 12 12 14 14 13 16 17
12 14 13 16 17 15 14 12 13 12 13 17 20 22 15 13 11 11 11 13 12 9 10 11 10 11 14 12 12 12 13 15
9 12 16 15 15 14 13 14 12 13 12 13 19 19 22 14 11 12 11 9 10 9 9 11 11 12 10 11 11 12 13 13
18 12 12 14 14 14 14 15 12 13 13 13 18 19 20 16 13 12 11 9 9 9 10 10 10 11 11 11 11 12 12 12
15 12 15 14 11 11 12 12 13 12 13 14 18 16 20 17 14 14 12 11 11 10 9 8 10 10 11 11 9 9 10 11
15 15 14 11 11 10 11 12 13 13 14 18 18 16 18 18 14 14 14 14 14 12 12 9 8 8 8 9 10 12 12 12
18 16 16 13 11 12 11 10 12 12 12 15 17 17 18 18 18 16 16 13 16 17 16 12 12 12 11 8 8 10 12 14
19 19 19 16 16 11 10 13 12 12 11 12 14 18 18 18 19 15 15 14 13 13 14 16 11 9 15 7 6 8 5 4
19 18 20 18 21 17 14 12 15 12 11 11 12 18 19 18 17 17 15 12 15 14 13 13 11 10 9 11 12 6 4 4
19 19 19 20 20 21 17 14 12 12 11 13 15 13 18 17 16 18 17 12 14 14 13 13 10 9 9 4 8 7 10 7
19 21 20 20 18 20 22 22 13 12 10 12 10 3 7 15 17 15 16 14 15 11 12 9 11 11 7 7 4 3 4 6
19 22 21 20 17 16 18 19 21 13 10 10 8 6 6 9 10 9 8 5 5 9 10 10 6 11 9 4 4 4 2 3
20 22 21 19 16 15 15 15 9 8 10 7 7 7 7 6 6 10 11 10 12 13 10 9 11 12 5 10 4 5 3 4
Wind_Direction
168 187 194 195 196 192 189 188 187 189 191 192 195 194 196 199 202 205 210 208 203 197 197 201 204 209 217 224 233 244 263 275
189 187 194 202 204 202 199 197 195 193 193 197 199 204 207 206 205 210 213 215 216 210 209 212 215 220 225 229 236 246 252 258
197 190 196 199 204 204 204 205 204 201 202 202 203 213 213 218 217 218 211 218 217 217 219 221 224 232 236 235 232 241 245 240
202 205 199 200 207 206 204 212 214 213 214 213 216 219 224 217 215 210 206 210 219 222 223 225 228 241 225 222 230 242 247 250
211 196 204 202 207 205 196 209 208 214 216 213 211 220 224 224 223 198 212 209 221 216 223 228 230 235 243 205 217 229 242 248
205 207 201 208 214 211 209 199 207 208 208 210 221 205 217 223 214 221 204 215 214 224 214 223 221 234 245 264 248 254 250 245
199 202 190 202 215 222 213 217 205 209 212 202 209 222 212 212 224 216 224 209 206 212 229 215 218 227 234 237 247 249 252 261
214 210 201 197 211 220 225 215 221 209 212 211 203 211 223 213 208 220 225 224 216 213 220 225 229 231 225 234 245 244 245 242
250 209 216 205 212 220 225 227 217 225 213 214 209 205 214 217 213 211 216 218 223 217 225 229 241 234 238 245 241 239 249 256
258 229 211 220 218 222 228 224 233 219 224 213 215 207 209 214 216 212 214 212 207 221 220 229 232 237 245 250 248 243 241 246
339 321 249 216 222 234 238 241 228 228 219 218 214 210 206 211 212 215 205 213 213 211 215 229 234 238 247 247 248 250 253 244
350 346 336 331 236 223 235 243 236 235 229 224 218 210 207 203 212 209 204 206 207 206 217 219 233 247 251 251 246 243 242 248
350 342 337 328 303 253 239 236 245 234 233 230 222 217 207 209 209 208 206 202 206 200 199 205 235 238 253 256 259 254 253 257
347 345 340 326 310 300 283 247 239 236 235 231 225 217 211 207 209 209 205 207 202 194 201 190 199 200 224 236 260 248 241 242
347 346 341 333 320 305 291 289 244 242 234 234 227 220 215 215 207 212 207 210 210 210 213 202 209 196 206 210 231 241 268 267
344 346 343 340 333 321 299 285 284 245 237 241 230 216 212 211 214 208 218 211 216 215 212 227 237 205 190 223 235 272 273 3
346 344 348 346 341 329 316 293 289 267 256 255 245 222 201 200 202 215 217 220 219 227 219 216 225 232 195 169 215 244 237 225
345 345 349 349 345 336 332 326 290 274 245 251 247 129 171 197 205 214 222 219 219 214 221 214 216 222 216 191 190 183 241 205
344 342 348 351 346 342 342 342 330 287 277 280 254 183 201 211 213 224 210 221 92 87 71 40 341 240 195 140 99 86 39 9
342 338 349 350 349 354 354 353 342 14 25 35 33 46 51 34 98 121 117 122 110 97 96 83 70 352 74 63 75 78 20 25